Retour au catalogue

NIMBUS 2 DEB

ActifLEO
NORAD 40641·DEBRIS·🇺🇸 United States

Lancé May 15, 1966 depuis Vandenberg Space Force Base

Loading…

Prochains Passages (prochaines 24 heures)

TLE

FraisSource: Space-Track

Époque: Sep 12, 2026, 23:03 UTC

1 40641U 66040BE  26255.96073120  .00001143  00000-0  19907-2 0  9996
2 40641 100.4042 149.2555 0051552 340.6419  19.2752 13.45609408554712

Suivez NIMBUS 2 DEB en temps réel avec AllMySat

Download on the App Store